time_stamp(utc),avg(mph),gust(mph),direction(deg),12m_air_temp(f),sonic_u(cm/s),sonic_v(cm/s),sonic_w(cm/s),pressure,2m_air_temp(f),pyranometer(W/m^2)
"2020-12-15 00:02:39+00",18.5,19.5,,37.4,-601,566,43,1013.13,37,0
"2020-12-15 00:07:39+00",13.8,15.8,,37.4,-430,441,42,1013.35,37,0
"2020-12-15 00:12:39+00",17.9,23.9,,37.4,-600,551,51,1013.46,37.1,0
"2020-12-15 00:17:39+00",18.6,21.6,,37.5,-573,591,52,1013.65,37.1,0
"2020-12-15 00:22:39+00",20.1,23.1,,37.5,-676,603,46,1013.68,37.1,0
"2020-12-15 00:27:39+00",21.0,23.0,,37.3,-595,699,61,1013.67,37.1,0
"2020-12-15 00:32:39+00",17.5,20.5,,37.4,-552,538,55,1013.64,37.1,0
"2020-12-15 00:37:39+00",16.6,20.6,,37.4,-534,520,44,1013.76,37.1,0
"2020-12-15 00:42:39+00",15.6,18.6,,37.5,-505,460,59,1013.84,37.1,0
"2020-12-15 00:47:39+00",17.8,20.8,,37.5,-595,544,53,1014.11,37.1,0
"2020-12-15 00:52:39+00",16.8,19.8,,37.5,-592,485,67,1014.11,37.1,0
"2020-12-15 00:57:39+00",15.9,17.9,,37.5,-555,451,48,1014.09,37.1,0
"2020-12-15 01:02:39+00",14.0,18.0,,37.4,-564,316,45,1014.28,37.1,0
"2020-12-15 01:07:39+00",13.1,15.1,,37.3,-480,361,48,1014.21,37,0
"2020-12-15 01:12:39+00",14.0,16.0,,37.3,-462,420,53,1014.32,37,0
"2020-12-15 01:17:39+00",14.3,16.3,,37.3,-541,356,37,1014.47,36.9,0
"2020-12-15 01:22:39+00",14.5,16.5,,37.2,-514,392,27,1014.77,36.8,0
"2020-12-15 01:27:39+00",12.4,14.4,,37.2,-436,317,33,1014.78,36.8,0
"2020-12-15 01:32:39+00",13.4,16.4,,37.1,-490,323,24,1014.74,36.7,0
"2020-12-15 01:37:39+00",12.7,15.7,,37.1,-466,309,22,1014.94,36.6,0
"2020-12-15 01:42:39+00",12.3,15.3,,37.1,-444,318,55,1015.05,36.6,0
"2020-12-15 01:47:39+00",10.2,11.2,,37,-407,227,32,1015.14,36.6,0
"2020-12-15 01:52:39+00",8.9,9.9,,37.1,-342,206,29,1015.22,36.5,0
"2020-12-15 01:57:39+00",10.3,11.3,,37.1,-393,236,25,1015.42,36.5,0
"2020-12-15 02:02:39+00",12.4,14.4,,37,-486,251,18,1015.41,36.4,0
"2020-12-15 02:07:39+00",12.7,16.7,,37.1,-523,284,27,1015.54,36.4,0
"2020-12-15 02:12:39+00",12.5,15.5,,37.4,-490,249,29,1015.69,36.5,0
"2020-12-15 02:17:39+00",13.7,15.7,,37.4,-586,248,34,1015.67,36.6,0
"2020-12-15 02:22:39+00",13.6,17.6,,37.5,-533,315,41,1015.7,36.7,0
"2020-12-15 02:27:39+00",15.5,18.5,,37.4,-650,302,50,1015.87,36.7,0
"2020-12-15 02:32:39+00",16.0,18.0,,37.4,-646,337,25,1016.04,36.7,0
"2020-12-15 02:37:39+00",16.9,20.9,,37.7,-645,386,44,1016.36,36.9,0
"2020-12-15 02:42:39+00",15.6,18.6,,37.6,-624,341,54,1016.41,36.9,0
"2020-12-15 02:47:39+00",17.3,21.3,,37.4,-634,447,56,1016.64,36.8,0
"2020-12-15 02:52:39+00",14.9,17.9,,37,-541,371,58,1016.84,36.7,0
"2020-12-15 02:57:39+00",13.5,14.5,,36.9,-487,348,29,1016.86,36.5,0
"2020-12-15 03:02:39+00",14.5,17.5,,37,-549,384,36,1016.9,36.5,0
"2020-12-15 03:07:39+00",16.6,18.6,,37.1,-603,445,34,1016.99,36.5,0
"2020-12-15 03:12:39+00",16.3,17.3,,37.2,-575,447,17,1017.04,36.5,0
"2020-12-15 03:17:39+00",15.0,17.0,,37.1,-534,428,24,1016.87,36.5,0
"2020-12-15 03:22:39+00",16.1,18.1,,37.2,-595,395,38,1016.86,36.4,0
"2020-12-15 03:27:39+00",14.3,16.3,,37.2,-533,363,24,1017.08,36.5,0
"2020-12-15 03:32:39+00",13.6,15.6,,37,-525,334,26,1017.12,36.4,0
"2020-12-15 03:37:39+00",15.5,17.5,,37,-552,417,34,1017.28,36.4,0
"2020-12-15 03:42:39+00",13.4,14.4,,36.9,-511,336,17,1017.45,36.4,0
"2020-12-15 03:47:39+00",14.4,16.4,,37.2,-535,369,14,1017.46,36.6,0
"2020-12-15 03:52:39+00",12.9,14.9,,37.3,-500,334,26,1017.49,36.7,0
"2020-12-15 03:57:39+00",13.3,15.3,,37.2,-490,336,29,1017.53,36.7,0
"2020-12-15 04:02:39+00",11.4,13.4,,37.2,-416,309,34,1017.53,36.8,0
"2020-12-15 04:07:39+00",10.6,12.6,,37.4,-337,311,31,1017.65,36.7,0
"2020-12-15 04:12:39+00",10.2,14.2,,37.3,-319,329,43,1017.64,36.7,0
"2020-12-15 04:17:39+00",9.1,11.1,,37,-261,303,28,1017.8,36.5,0
"2020-12-15 04:22:39+00",9.3,11.3,,36.3,-260,319,19,1017.98,36.2,0
"2020-12-15 04:27:39+00",12.9,14.9,,36.1,-352,449,17,1018.19,35.7,0
"2020-12-15 04:32:39+00",12.6,13.6,,36.2,-349,450,18,1018.29,35.5,0
"2020-12-15 04:37:39+00",16.1,18.1,,37.1,-570,459,31,1018.45,35.7,0
"2020-12-15 04:42:39+00",14.9,16.9,,37.4,-517,416,34,1018.54,36.3,0
"2020-12-15 04:47:39+00",16.0,18.0,,37.2,-561,447,47,1018.76,36.4,0
"2020-12-15 04:52:39+00",13.7,16.7,,37.1,-472,371,42,1018.95,36.5,0
"2020-12-15 04:57:39+00",14.8,16.8,,37.1,-511,443,30,1018.99,36.6,0
"2020-12-15 05:02:39+00",11.9,14.9,,36.9,-405,338,46,1019.18,36.5,0
"2020-12-15 05:07:39+00",14.8,15.8,,36.6,-499,428,45,1019.36,36.4,0
"2020-12-15 05:12:39+00",15.7,17.7,,36.5,-530,469,53,1019.35,36.2,0
"2020-12-15 05:17:39+00",12.9,15.9,,36.3,-453,378,55,1019.39,36,0
"2020-12-15 05:22:39+00",16.2,17.2,,36.1,-550,482,37,1019.43,35.8,0
"2020-12-15 05:27:39+00",15.2,17.2,,36.3,-549,456,31,1019.39,35.8,0
"2020-12-15 05:32:39+00",17.9,19.9,,36.4,-605,525,27,1019.35,35.7,0
"2020-12-15 05:37:39+00",17.7,20.7,,36.5,-627,501,38,1019.66,35.8,0
"2020-12-15 05:42:39+00",16.2,20.2,,36.6,-536,507,46,1019.61,35.9,0
"2020-12-15 05:47:39+00",14.6,17.6,,36.3,-492,445,48,1019.79,35.8,0
"2020-12-15 05:52:39+00",16.4,17.4,,36,-469,555,28,1019.97,35.5,0
"2020-12-15 05:57:39+00",16.7,19.7,,35.8,-500,551,23,1020.01,35.2,0
"2020-12-15 06:02:39+00",15.8,17.8,,35.5,-432,578,28,1020.18,34.9,0
"2020-12-15 06:07:39+00",16.4,18.4,,35.2,-387,611,23,1020.03,34.6,0
"2020-12-15 06:12:39+00",13.3,15.3,,35,-330,491,28,1020.21,34.4,0
"2020-12-15 06:17:39+00",13.3,16.3,,34.8,-349,475,25,1020.41,34.2,0
"2020-12-15 06:22:39+00",11.9,14.9,,34.6,-317,438,16,1020.67,33.9,0
"2020-12-15 06:27:39+00",12.5,13.5,,34.5,-320,462,12,1020.68,33.7,0
"2020-12-15 06:32:39+00",11.3,13.3,,34.4,-292,412,35,1020.86,33.5,0
"2020-12-15 06:37:39+00",13.0,16.0,,34.3,-361,457,19,1020.93,33.4,0
"2020-12-15 06:42:39+00",15.4,17.4,,34.4,-329,606,23,1020.96,33.3,0
"2020-12-15 06:47:39+00",16.4,18.4,,34.4,-433,596,32,1020.96,33.3,0
"2020-12-15 06:52:39+00",14.9,16.9,,34.3,-373,555,30,1021.05,33.3,0
"2020-12-15 06:57:39+00",12.8,14.8,,34,-281,488,21,1021.07,33.1,0
"2020-12-15 07:02:39+00",13.6,16.6,,33.9,-330,499,25,1021.29,33,0
"2020-12-15 07:07:39+00",11.8,14.8,,33.8,-337,412,35,1021.42,32.9,0
"2020-12-15 07:12:39+00",14.1,17.1,,33.8,-386,482,26,1021.43,32.8,0
"2020-12-15 07:17:39+00",12.1,13.1,,33.7,-322,420,26,1021.43,32.7,0
"2020-12-15 07:22:39+00",13.7,15.7,,33.7,-376,491,11,1021.49,32.7,0
"2020-12-15 07:27:39+00",11.9,14.9,,33.5,-321,420,27,1021.63,32.7,0
"2020-12-15 07:32:39+00",11.8,13.8,,33.4,-307,431,15,1021.65,32.5,0
"2020-12-15 07:37:39+00",10.8,12.8,,33.3,-302,372,12,1021.71,32.4,0
"2020-12-15 07:42:39+00",10.6,13.6,,33.4,-316,365,20,1021.88,32.3,0
"2020-12-15 07:47:39+00",12.2,14.2,,33.7,-356,408,9,1022,32.4,0
"2020-12-15 07:52:39+00",12.3,13.3,,33.8,-350,418,17,1021.99,32.5,0
"2020-12-15 07:57:39+00",12.5,14.5,,33.7,-369,411,10,1021.9,32.5,0
"2020-12-15 08:02:39+00",11.5,12.5,,33.7,-334,383,25,1022.08,32.5,0
"2020-12-15 08:07:39+00",8.7,9.7,,33.6,-286,264,32,1022.18,32.5,0
"2020-12-15 08:12:39+00",11.7,13.7,,33.7,-389,361,32,1022.23,32.5,0
"2020-12-15 08:17:39+00",12.2,14.2,,33.8,-406,362,43,1022.12,32.6,0
"2020-12-15 08:22:39+00",12.8,14.8,,33.7,-429,389,37,1022.15,32.7,0
"2020-12-15 08:27:39+00",13.3,16.3,,33.7,-476,362,25,1022.19,32.7,0
"2020-12-15 08:32:39+00",13.5,14.5,,33.7,-471,380,31,1022.17,32.7,0
"2020-12-15 08:37:39+00",13.7,15.7,,33.8,-458,410,22,1022.19,32.8,0
"2020-12-15 08:42:39+00",13.0,15.0,,33.7,-433,399,16,1022.21,32.8,0
"2020-12-15 08:47:39+00",11.6,12.6,,33.7,-425,318,26,1022.25,32.8,0
"2020-12-15 08:52:39+00",11.7,12.7,,33.6,-441,299,42,1022.37,32.7,0
"2020-12-15 08:57:39+00",10.7,12.7,,33.5,-419,237,30,1022.47,32.6,0
"2020-12-15 09:02:39+00",11.4,13.4,,33.5,-430,282,6,1022.7,32.5,0
"2020-12-15 09:07:39+00",12.7,14.7,,33.7,-467,316,4,1022.77,32.5,0
"2020-12-15 09:12:39+00",11.4,12.4,,33.8,-418,273,32,1022.81,32.7,0
"2020-12-15 09:17:39+00",14.9,15.9,,33.8,-577,369,28,1022.83,32.8,0
"2020-12-15 09:22:39+00",14.7,16.7,,34,-546,385,30,1022.83,33,0
"2020-12-15 09:27:39+00",15.7,17.7,,34,-564,413,17,1022.83,33.1,0
"2020-12-15 09:32:39+00",14.9,15.9,,34.1,-521,416,9,1023.09,33.2,0
"2020-12-15 09:37:39+00",13.6,15.6,,33.9,-475,392,28,1023.13,33.2,0
"2020-12-15 09:42:39+00",12.5,14.5,,33.7,-436,380,22,1023.21,33,0
"2020-12-15 09:47:39+00",13.1,16.1,,33.7,-448,394,35,1023.19,33,0
"2020-12-15 09:52:39+00",11.1,13.1,,33.7,-377,331,33,1023.29,32.9,0
"2020-12-15 09:57:39+00",11.0,13.0,,33.6,-401,317,14,1023.42,32.9,0
"2020-12-15 10:02:39+00",11.6,12.6,,33.8,-439,294,15,1023.36,32.9,0
"2020-12-15 10:07:39+00",10.1,13.1,,33.6,-384,247,26,1023.45,32.8,0
"2020-12-15 10:12:39+00",10.7,12.7,,33.6,-393,277,27,1023.55,32.8,0
"2020-12-15 10:17:39+00",10.1,12.1,,33.7,-369,246,23,1023.61,32.8,0
"2020-12-15 10:22:39+00",10.3,12.3,,33.8,-403,235,21,1023.73,32.8,0
"2020-12-15 10:27:39+00",13.2,16.2,,33.9,-508,318,21,1023.84,32.9,0
"2020-12-15 10:32:39+00",13.0,14.0,,34.1,-462,351,30,1023.95,33,0
"2020-12-15 10:37:39+00",12.4,14.4,,34.1,-424,342,28,1023.89,33.2,0
"2020-12-15 10:42:39+00",12.8,15.8,,34.1,-444,370,40,1024.03,33.2,0
"2020-12-15 10:47:39+00",11.2,13.2,,34,-387,336,28,1024.02,33.2,0
"2020-12-15 10:52:39+00",11.1,13.1,,33.9,-410,321,26,1023.95,33.2,0
"2020-12-15 10:57:39+00",11.2,12.2,,33.8,-399,321,29,1023.99,33.1,0
"2020-12-15 11:02:39+00",11.2,13.2,,33.6,-383,335,21,1024.07,33,0
"2020-12-15 11:07:39+00",11.9,12.9,,33.5,-415,355,25,1024.1,32.8,0
"2020-12-15 11:12:39+00",11.8,12.8,,33.3,-436,313,16,1024.01,32.7,0
"2020-12-15 11:17:39+00",11.0,13.0,,33.4,-393,306,34,1024.09,32.7,0
"2020-12-15 11:22:39+00",11.6,13.6,,33.3,-434,292,35,1024.24,32.6,0
"2020-12-15 11:27:39+00",11.7,12.7,,33.1,-406,330,28,1024.38,32.5,0
"2020-12-15 11:32:39+00",10.7,11.7,,33.3,-384,287,34,1024.37,32.5,0
"2020-12-15 11:37:39+00",11.5,13.5,,33.5,-398,317,16,1024.62,32.6,0
"2020-12-15 11:42:39+00",10.8,11.8,,33.6,-410,274,17,1024.79,32.7,0
"2020-12-15 11:47:39+00",10.2,11.2,,33.6,-387,243,36,1024.73,32.7,0
"2020-12-15 11:52:39+00",13.1,15.1,,33.7,-518,276,10,1024.83,32.7,0
"2020-12-15 11:57:39+00",11.5,13.5,,33.4,-486,198,18,1024.94,32.7,0
"2020-12-15 12:02:39+00",11.3,13.3,,33.5,-427,255,31,1024.97,32.6,0
"2020-12-15 12:07:39+00",11.4,12.4,,33.5,-468,222,22,1025.09,32.6,0
"2020-12-15 12:12:39+00",11.2,12.2,,33.5,-462,198,30,1025.1,32.6,0
"2020-12-15 12:17:39+00",13.2,15.2,,33.3,-538,275,18,1025.09,32.6,0
"2020-12-15 12:22:39+00",12.5,13.5,,33.2,-442,348,44,1025.15,32.6,0
"2020-12-15 12:27:39+00",14.0,16.0,,32.9,-539,321,8,1025.14,32.7,0
"2020-12-15 12:32:39+00",14.2,17.2,,33,-504,385,50,1025.26,32.8,0
"2020-12-15 12:37:39+00",14.9,16.9,,32.9,-600,345,10,1025.29,33,0
"2020-12-15 12:42:39+00",15.0,17.0,,32.6,-597,330,35,1025.39,33.2,0
"2020-12-15 12:47:39+00",13.9,16.9,,32.5,-574,274,37,1025.58,33.3,0
"2020-12-15 12:52:39+00",14.1,17.1,,32.5,-502,360,71,1025.55,33.3,0
"2020-12-15 12:57:39+00",14.6,17.6,,32.5,-543,391,41,1025.72,33.5,0
"2020-12-15 13:02:39+00",16.7,18.7,,32.3,-579,459,33,1025.71,33.5,0
"2020-12-15 13:07:39+00",17.4,20.4,,32.3,-636,455,39,1025.79,33.5,0
"2020-12-15 13:12:39+00",15.7,17.7,,32.2,-542,435,46,1025.85,33.4,0
"2020-12-15 13:17:39+00",14.0,15.0,,32.1,-528,353,51,1025.81,33.5,0
"2020-12-15 13:22:39+00",13.3,17.3,,32.4,-437,393,59,1025.79,33.8,0
"2020-12-15 13:27:39+00",14.6,16.6,,32.4,-500,439,24,1025.82,33.9,0
"2020-12-15 13:32:39+00",15.0,17.0,,32.4,-517,444,35,1025.89,33.7,0
"2020-12-15 13:37:39+00",15.3,17.3,,32.5,-489,492,61,1025.96,33.7,0
"2020-12-15 13:42:39+00",16.5,18.5,,32.8,-491,531,40,1025.82,33.9,0
"2020-12-15 13:47:39+00",13.7,15.7,,32.9,-476,405,28,1025.78,34,0
"2020-12-15 13:52:39+00",14.2,16.2,,33.1,-404,466,59,1025.77,34.3,0
"2020-12-15 13:57:39+00",16.1,20.1,,33.1,-516,483,20,1025.77,34.8,0
"2020-12-15 14:02:39+00",15.1,17.1,,33.3,-536,411,31,1025.86,35,0
"2020-12-15 14:07:39+00",13.8,16.8,,33.5,-422,434,66,1025.79,35.2,0
"2020-12-15 14:12:39+00",13.5,16.5,,33.7,-450,423,49,1025.93,35.2,0
"2020-12-15 14:17:39+00",16.7,18.7,,33.9,-512,566,24,1025.92,35.5,0
"2020-12-15 14:22:39+00",15.9,18.9,,34,-521,501,63,1025.9,35.5,0
"2020-12-15 14:27:39+00",16.4,19.4,,34.1,-536,526,55,1025.94,35.7,0
"2020-12-15 14:32:39+00",17.4,20.4,,34.2,-537,568,66,1026.01,35.7,0
"2020-12-15 14:37:39+00",17.9,21.9,,34.4,-583,584,36,1026.07,36,0
"2020-12-15 14:42:39+00",18.2,22.2,,34.6,-601,563,54,1026.31,35.9,0
"2020-12-15 14:47:39+00",18.8,21.8,,34.4,-573,645,55,1025.97,35.9,0
"2020-12-15 14:52:39+00",19.9,22.9,,34.3,-464,748,19,1025.94,36,0
"2020-12-15 14:57:39+00",16.9,18.9,,34.5,-431,610,39,1025.88,36,0
"2020-12-15 15:02:39+00",20.3,23.3,,34.5,-458,790,22,1025.8,36.1,0
"2020-12-15 15:07:39+00",19.1,24.1,,34.6,-427,698,23,1025.74,36.2,0
"2020-12-15 15:12:39+00",16.2,18.2,,34.8,-343,623,19,1025.81,36.3,0
"2020-12-15 15:17:39+00",16.5,20.5,,34.9,-395,629,56,1025.68,36.6,0
"2020-12-15 15:22:39+00",20.9,22.9,,35.1,-355,872,8,1025.58,36.9,0
"2020-12-15 15:27:39+00",20.0,23.0,,35.1,-366,817,16,1025.5,37,0
"2020-12-15 15:32:39+00",16.7,21.7,,35.1,-432,600,30,1025.57,36.9,0
"2020-12-15 15:37:39+00",17.0,20.0,,35.7,-453,614,45,1025.66,37.3,0
"2020-12-15 15:42:39+00",18.7,22.7,,35.5,-331,747,29,1025.76,37.5,0
"2020-12-15 15:47:39+00",17.6,19.6,,35.5,-440,638,-8,1025.72,37.7,0
"2020-12-15 15:52:39+00",16.4,18.4,,35.6,-272,684,17,1025.81,37.8,0
"2020-12-15 15:57:39+00",18.5,21.5,,35.7,-326,750,23,1025.76,37.9,0
"2020-12-15 16:02:39+00",16.2,18.2,,35.8,-315,639,22,1025.75,37.8,0
"2020-12-15 16:07:39+00",16.1,19.1,,35.8,-330,636,32,1025.74,38,0
"2020-12-15 16:12:39+00",15.3,17.3,,35.7,-218,646,7,1025.74,38.2,0
"2020-12-15 16:17:39+00",12.9,14.9,,35.8,-395,425,33,1025.66,38.7,0
"2020-12-15 16:22:39+00",13.2,15.2,,35.8,-358,463,19,1025.55,38.5,0
"2020-12-15 16:27:39+00",15.0,16.0,,36,-509,446,32,1025.58,38.7,0
"2020-12-15 16:32:39+00",14.2,17.2,,36.2,-314,552,34,1025.54,38.7,0
"2020-12-15 16:37:39+00",14.2,16.2,,36.3,-275,574,17,1025.6,39.1,0
"2020-12-15 16:42:39+00",15.5,17.5,,36.4,-378,574,18,1025.45,38.8,0
"2020-12-15 16:47:39+00",14.3,16.3,,36.3,-309,544,25,1025.36,38.8,0
"2020-12-15 16:52:39+00",11.3,13.3,,36.2,-358,345,25,1025.3,38.8,0
"2020-12-15 16:57:39+00",15.7,16.7,,36.5,-533,465,55,1025.22,38.8,0
"2020-12-15 17:02:39+00",16.4,19.4,,36.9,-523,559,49,1025.38,39.1,0
"2020-12-15 17:07:39+00",13.4,14.4,,36.4,-378,451,22,1025.38,38.9,0
"2020-12-15 17:12:39+00",15.2,17.2,,36.7,-355,592,37,1025.29,39,0
"2020-12-15 17:17:39+00",16.7,19.7,,36.7,-255,712,12,1025.33,39.2,0
"2020-12-15 17:22:39+00",15.6,17.6,,36.8,-283,623,28,1025.3,39.2,0
"2020-12-15 17:27:39+00",13.7,17.7,,37.1,-283,555,35,1025.24,39.5,0
"2020-12-15 17:32:39+00",13.2,17.2,,37.2,-316,513,39,1025.24,39.5,0
"2020-12-15 17:37:39+00",16.7,20.7,,37,-518,551,44,1025.16,39.4,0
"2020-12-15 17:42:39+00",13.8,15.8,,37.1,-385,502,40,1025.16,39.2,0
"2020-12-15 17:47:39+00",16.3,20.3,,37.1,-376,616,53,1025.28,39.2,0
"2020-12-15 17:52:39+00",15.9,19.9,,37.2,-380,595,18,1025.23,39.3,0
"2020-12-15 17:57:39+00",17.0,19.0,,37,-447,627,26,1025.15,39.1,0
"2020-12-15 18:02:39+00",12.8,15.8,,37,-416,421,22,1025.25,39,0
"2020-12-15 18:07:39+00",16.3,17.3,,37.5,-529,514,31,1025.11,39.3,0
"2020-12-15 18:12:39+00",11.9,14.9,,37.3,-327,410,32,1025.05,39.3,0
"2020-12-15 18:17:39+00",13.6,15.6,,37.5,-319,503,24,1024.83,39.5,0
"2020-12-15 18:22:39+00",15.2,19.2,,37.6,-456,505,32,1024.83,39.7,0
"2020-12-15 18:27:39+00",15.2,17.2,,37.5,-483,476,13,1024.8,39.6,0
"2020-12-15 18:32:39+00",14.9,16.9,,37.8,-459,472,44,1024.83,39.6,0
"2020-12-15 18:37:39+00",15.6,18.6,,37.4,-450,524,19,1024.79,39.4,0
"2020-12-15 18:42:39+00",12.0,15.0,,37.6,-438,291,64,1024.82,39.5,0
"2020-12-15 18:47:39+00",14.6,17.6,,37.9,-498,429,47,1024.89,39.7,0
"2020-12-15 18:52:39+00",11.5,13.5,,37.8,-349,386,28,1025.01,39.8,0
"2020-12-15 18:57:39+00",16.4,21.4,,38,-641,412,39,1024.94,40,0
"2020-12-15 19:02:39+00",17.0,20.0,,38.2,-497,575,42,1024.97,40,0
"2020-12-15 19:07:39+00",13.4,15.4,,38,-465,393,27,1025.15,39.8,0
"2020-12-15 19:12:39+00",15.7,16.7,,38.2,-335,607,22,1025.26,39.9,0
"2020-12-15 19:17:39+00",14.8,16.8,,38.1,-367,557,41,1025.34,39.6,0
"2020-12-15 19:22:39+00",17.3,19.3,,38.1,-540,546,25,1025.32,39.5,0
"2020-12-15 19:27:39+00",11.5,13.5,,38.1,-202,451,16,1025.45,39.4,0
"2020-12-15 19:32:39+00",14.9,16.9,,38.1,-203,643,15,1025.44,39.2,0
"2020-12-15 19:37:39+00",13.8,15.8,,37.9,-462,420,33,1025.42,38.9,0
"2020-12-15 19:42:39+00",14.8,16.8,,38.1,-383,531,26,1025.57,38.8,0
"2020-12-15 19:47:39+00",16.6,19.6,,38,-338,641,15,1025.65,38.6,0
"2020-12-15 19:52:39+00",14.4,16.4,,38,-307,570,20,1025.74,38.6,0
"2020-12-15 19:57:39+00",13.5,15.5,,38,-322,497,31,1025.76,38.7,0
"2020-12-15 20:02:39+00",12.9,14.9,,37.9,-354,462,33,1025.86,38.5,0
"2020-12-15 20:07:39+00",11.7,13.7,,37.9,-321,412,42,1025.89,38.4,0
"2020-12-15 20:12:39+00",19.3,22.3,,37.7,-527,679,29,1025.95,38.1,0
"2020-12-15 20:17:39+00",12.5,16.5,,37.6,-311,454,39,1026.18,37.9,0
"2020-12-15 20:22:39+00",14.2,16.2,,37.6,-375,503,35,1026.35,37.8,0
"2020-12-15 20:27:39+00",12.6,14.6,,37.5,-279,479,32,1026.37,37.6,0
"2020-12-15 20:32:39+00",14.1,15.1,,37.5,-289,549,27,1026.32,37.5,0
"2020-12-15 20:37:39+00",12.3,14.3,,37.4,-331,434,29,1026.4,37.3,0
"2020-12-15 20:42:39+00",11.4,13.4,,37.4,-249,447,12,1026.54,37.2,0
"2020-12-15 20:47:39+00",14.0,17.0,,37.3,-261,562,11,1026.51,37.1,0
"2020-12-15 20:52:39+00",11.7,12.7,,37.2,-265,437,24,1026.52,37,0
"2020-12-15 20:57:39+00",10.1,11.1,,37.2,-275,360,21,1026.55,36.8,0
"2020-12-15 21:02:39+00",8.7,9.7,,37,-231,304,16,1026.63,36.7,0
"2020-12-15 21:07:39+00",12.3,14.3,,37.1,-330,424,19,1026.71,36.6,0
"2020-12-15 21:12:39+00",9.1,10.1,,37,-240,318,20,1026.73,36.5,0
"2020-12-15 21:17:39+00",9.8,10.8,,36.9,-273,355,15,1026.83,36.3,0
"2020-12-15 21:22:39+00",7.6,8.6,,36.7,-168,280,9,1026.97,36.1,0
"2020-12-15 21:27:39+00",8.3,10.3,,36.6,-175,313,11,1026.97,35.8,0
"2020-12-15 21:32:39+00",9.0,11.0,,36.5,-163,351,11,1027.02,35.5,0
"2020-12-15 21:37:39+00",8.6,9.6,,36.2,-187,322,13,1027.15,35.2,0
"2020-12-15 21:42:39+00",6.2,7.2,,36,-116,251,4,1027.25,34.9,0
"2020-12-15 21:47:39+00",8.3,9.3,,36,-179,317,9,1027.25,34.7,0
"2020-12-15 21:52:39+00",10.0,10.0,,36,-226,371,18,1027.3,34.4,0
"2020-12-15 21:57:39+00",8.1,9.1,,35.8,-175,305,6,1027.44,34.3,0
"2020-12-15 22:02:39+00",7.2,8.2,,35.7,-157,276,6,1027.52,34.1,0
"2020-12-15 22:07:39+00",9.6,10.6,,35.7,-208,368,14,1027.46,33.9,0
"2020-12-15 22:12:39+00",8.3,9.3,,35.5,-148,329,12,1027.56,33.8,0
"2020-12-15 22:17:39+00",6.2,7.2,,35.2,-108,254,4,1027.66,33.6,0
"2020-12-15 22:22:39+00",7.9,8.9,,35.1,-151,316,13,1027.71,33.4,0
"2020-12-15 22:27:39+00",8.0,8.0,,34.8,-126,325,4,1027.74,33.1,0
"2020-12-15 22:32:39+00",7.7,9.7,,34.7,-113,333,0,1027.76,32.9,0
"2020-12-15 22:37:39+00",9.7,10.7,,34.6,-149,397,5,1027.86,32.7,0
"2020-12-15 22:42:39+00",8.4,9.4,,34.5,-131,354,7,1027.92,32.6,0
"2020-12-15 22:47:39+00",9.6,10.6,,34.2,-141,403,7,1027.95,32.5,0
"2020-12-15 22:52:39+00",10.5,12.5,,34.2,-173,433,7,1027.71,32.4,0
"2020-12-15 22:57:39+00",9.3,10.3,,34.1,-142,397,11,1027.74,32.4,0
"2020-12-15 23:02:39+00",9.6,11.6,,34,-145,404,0,1027.8,32.4,0
"2020-12-15 23:07:39+00",10.7,11.7,,34,-189,425,4,1027.84,32.3,0
"2020-12-15 23:12:39+00",8.6,10.6,,34,-125,362,3,1027.91,32.4,0
"2020-12-15 23:17:39+00",8.0,9.0,,33.8,-135,322,6,1027.91,32.4,0
"2020-12-15 23:22:39+00",8.6,9.6,,33.8,-143,350,4,1027.96,32.3,0
"2020-12-15 23:27:39+00",8.5,10.5,,33.7,-122,358,-1,1028.11,32.1,0
"2020-12-15 23:32:39+00",8.8,10.8,,33.7,-156,364,5,1028.14,32,0
"2020-12-15 23:37:39+00",8.7,9.7,,33.7,-134,359,3,1028.07,32,0
"2020-12-15 23:42:39+00",8.1,9.1,,33.6,-131,330,5,1028.13,31.9,0
"2020-12-15 23:47:39+00",8.3,10.3,,33.6,-126,349,3,1028.16,31.9,0
"2020-12-15 23:52:39+00",8.5,9.5,,33.5,-117,353,4,1028.23,31.7,0
"2020-12-15 23:57:39+00",9.2,10.2,,33.6,-136,387,3,1028.2,31.5,0
